JR2TER-13 Weather Reports


time (UTC)temp
F
wind
direction
speed
knots
gust
knots
rain 1hr
in
rain 24hr
in
rain mn
in
humidity
%
barometer
mb
20260509134504 61 313 7.8 12.2 0.00 0.00 0.00 50 1016.1
20260509134004 61 308 8.7 12.2 0.00 0.00 0.00 50 1016.1
20260509133504 62 303 5.2 12.2 0.00 0.00 0.00 50 1016.1
20260509133004 62 306 5.2 12.2 0.00 0.00 0.00 50 1016.1
20260509132504 62 317 11.3 12.2 0.00 0.00 0.00 50 1016.1
20260509132004 62 320 7.0 12.2 0.00 0.00 0.00 50 1016.1
20260509131505 62 319 5.2 7.0 0.00 0.00 0.00 50 1016.1
20260509131003 62 324 2.6 7.0 0.00 0.00 0.00 50 1016.1
20260509130504 62 319 3.5 7.0 0.00 0.00 0.00 50 1016.1
20260509130005 63 323 6.1 6.1 0.00 0.00 0.00 50 1016.1
20260509125504 63 319 5.2 5.2 0.00 0.00 0.00 50 1016.1
20260509125003 63 327 3.5 7.0 0.00 0.00 0.00 50 1016.1
20260509124504 63 330 6.1 13.9 0.00 0.00 0.00 50 1016.1
20260509123504 63 311 6.1 13.9 0.00 0.00 0.00 50 1016.1
20260509123004 63 302 8.7 11.3 0.00 0.00 0.00 50 1016.1
20260509122505 64 306 7.8 8.7 0.00 0.00 0.00 50 1016.1
20260509122004 64 314 5.2 9.6 0.00 0.00 0.00 50 1016.1
20260509120503 64 300 5.2 11.3 0.00 0.00 0.00 50 1015.1
20260509115004 64 312 5.2 11.3 0.00 0.00 0.00 50 1015.1
20260509114504 64 317 7.0 10.4 0.00 0.00 0.00 50 1015.1
20260509114004 64 321 5.2 10.4 0.00 0.00 0.00 50 1015.1
20260509113504 64 322 9.6 10.4 0.00 0.00 0.00 50 1015.1
20260509113004 65 326 4.3 9.6 0.00 0.00 0.00 50 1015.1
20260509112504 65 311 5.2 13.0 0.00 0.00 0.00 50 1015.1
20260509112004 65 299 9.6 13.0 0.00 0.00 0.00 50 1015.1
20260509111506 65 299 7.8 9.6 0.00 0.00 0.00 50 1014.1
20260509111005 65 304 9.6 11.3 0.00 0.00 0.00 50 1014.1
20260509110504 65 305 8.7 11.3 0.00 0.00 0.00 50 1014.1
20260509110004 65 305 7.0 11.3 0.00 0.00 0.00 50 1014.1
20260509105505 65 297 5.2 5.2 0.00 0.00 0.00 50 1014.1
20260509105004 65 302 3.5 9.6 0.00 0.00 0.00 50 1014.1
20260509104504 66 295 5.2 9.6 0.00 0.00 0.00 50 1013.1
20260509104004 66 301 8.7 9.6 0.00 0.00 0.00 50 1013.1
20260509103504 66 320 7.0 8.7 0.00 0.00 0.00 50 1013.1
20260509103004 66 313 6.1 7.8 0.00 0.00 0.00 50 1014.1
20260509102504 66 305 5.2 8.7 0.00 0.00 0.00 50 1014.1
20260509101504 67 310 5.2 7.8 0.00 0.00 0.00 50 1014.1
20260509101004 67 306 3.5 11.3 0.00 0.00 0.00 50 1014.1
20260509100503 67 300 6.1 11.3 0.00 0.00 0.00 50 1014.1
20260509100005 67 300 8.7 11.3 0.00 0.00 0.00 50 1013.1
20260509095503 67 304 6.1 7.8 0.00 0.00 0.00 50 1013.1
20260509095004 68 309 1.7 7.8 0.00 0.00 0.00 50 1013.1
20260509094504 68 311 2.6 11.3 0.00 0.00 0.00 50 1012.1
20260509093504 69 304 7.8 11.3 0.00 0.00 0.00 50 1012.1
20260509092004 69 299 7.0 12.2 0.00 0.00 0.00 50 1012.1
20260509091504 69 306 7.0 13.0 0.00 0.00 0.00 50 1012.1
20260509091004 70 306 9.6 13.0 0.00 0.00 0.00 50 1012.1
20260509090504 70 302 7.8 15.6 0.00 0.00 0.00 50 1012.1
20260509090004 70 305 12.2 15.6 0.00 0.00 0.00 50 1011.1
20260509085504 71 304 10.4 13.0 0.00 0.00 0.00 50 1011.1
20260509085004 71 305 6.1 13.9 0.00 0.00 0.00 50 1011.1
20260509084504 71 309 9.6 13.9 0.00 0.00 0.00 50 1010.1
20260509084004 71 309 8.7 11.3 0.00 0.00 0.00 50 1010.1
20260509083503 72 310 6.1 9.6 0.00 0.00 0.00 50 1010.1
20260509083004 72 328 3.5 13.0 0.00 0.00 0.00 50 1010.1
20260509082504 72 327 4.3 17.4 0.00 0.00 0.00 50 1010.1
20260509082004 72 324 7.8 17.4 0.00 0.00 0.00 50 1010.1
20260509081504 72 326 13.0 15.6 0.00 0.00 0.00 50 1010.1
20260509081004 72 332 11.3 20.0 0.00 0.00 0.00 50 1010.1
20260509080505 73 327 13.9 20.0 0.00 0.00 0.00 50 1010.1
20260509080004 73 310 10.4 22.6 0.00 0.00 0.00 50 1010.1
20260509075503 73 309 8.7 22.6 0.00 0.00 0.00 50 1010.1
20260509075004 74 320 14.8 19.1 0.00 0.00 0.00 50 1010.1
20260509074505 74 323 14.8 21.7 0.00 0.00 0.00 50 1010.1
20260509074004 74 321 12.2 21.7 0.00 0.00 0.00 50 1010.1
20260509073504 74 316 14.8 19.1 0.00 0.00 0.00 50 1010.1
20260509073004 74 313 12.2 18.2 0.00 0.00 0.00 50 1010.1
20260509072504 74 311 13.0 16.5 0.00 0.00 0.00 50 1010.1
20260509072003 74 312 5.2 20.0 0.00 0.00 0.00 50 1010.1
20260509071504 74 310 11.3 20.0 0.00 0.00 0.00 50 1010.1
20260509071004 74 319 9.6 20.0 0.00 0.00 0.00 50 1010.1
20260509070504 74 318 7.8 20.0 0.00 0.00 0.00 50 1010.1
20260509070004 74 304 8.7 14.8 0.00 0.00 0.00 50 1010.1
20260509065504 74 311 7.8 15.6 0.00 0.00 0.00 50 1010.1
20260509065003 74 319 7.8 19.1 0.00 0.00 0.00 50 1010.1
20260509064504 74 316 11.3 19.1 0.00 0.00 0.00 50 1010.1
20260509064004 74 312 8.7 18.2 0.00 0.00 0.00 50 1010.1
20260509063504 75 318 11.3 18.2 0.00 0.00 0.00 50 1010.1
20260509063004 75 323 9.6 20.9 0.00 0.00 0.00 50 1010.1
20260509062504 75 318 11.3 20.9 0.00 0.00 0.00 50 1010.1
20260509062004 75 330 13.0 15.6 0.00 0.00 0.00 50 1010.1
20260509061504 75 328 10.4 15.6 0.00 0.00 0.00 50 1010.1
20260509061004 75 312 9.6 15.6 0.00 0.00 0.00 50 1010.1
20260509060504 75 316 11.3 20.0 0.00 0.00 0.00 50 1010.1
20260509060005 75 317 11.3 20.9 0.00 0.00 0.00 50 1010.1
20260509055504 75 318 14.8 20.9 0.00 0.00 0.00 50 1010.1
20260509054504 75 328 15.6 26.1 0.00 0.00 0.00 50 1010.1
20260509054004 75 326 18.2 22.6 0.00 0.00 0.00 50 1010.1
20260509053003 75 327 7.8 18.2 0.00 0.00 0.00 50 1010.1
20260509052504 75 316 11.3 20.9 0.00 0.00 0.00 50 1010.1
20260509052004 75 307 13.0 24.3 0.00 0.00 0.00 50 1010.1
20260509051504 75 310 13.9 24.3 0.00 0.00 0.00 50 1010.1
20260509051004 75 310 11.3 18.2 0.00 0.00 0.00 50 1010.1
20260509050504 75 323 13.9 18.2 0.00 0.00 0.00 50 1010.1
20260509050004 75 330 8.7 21.7 0.00 0.00 0.00 50 1010.1
20260509045504 75 326 9.6 21.7 0.00 0.00 0.00 50 1010.1
20260509045004 75 320 9.6 19.1 0.00 0.00 0.00 50 1010.1
20260509044504 74 312 8.7 24.3 0.00 0.00 0.00 50 1011.1
20260509044003 74 305 17.4 24.3 0.00 0.00 0.00 50 1011.1
20260509043504 74 304 13.9 26.1 0.00 0.00 0.00 50 1011.1
20260509043004 75 323 18.2 26.1 0.00 0.00 0.00 50 1011.1
20260509042504 74 326 8.7 24.3 0.00 0.00 0.00 50 1011.1
20260509042004 74 315 18.2 24.3 0.00 0.00 0.00 50 1011.1
20260509041504 75 314 13.0 20.9 0.00 0.00 0.00 50 1011.1
20260509041003 74 323 8.7 20.0 0.00 0.00 0.00 50 1011.1
20260509040504 74 323 11.3 24.3 0.00 0.00 0.00 50 1011.1
20260509040005 74 319 15.6 24.3 0.00 0.00 0.00 50 1011.1
20260509035004 74 322 20.9 28.7 0.00 0.00 0.00 50 1011.1
20260509034004 74 317 18.2 29.5 0.00 0.00 0.00 50 1011.1
20260509033504 74 320 18.2 27.8 0.00 0.00 0.00 50 1011.1
20260509033004 74 319 17.4 30.4 0.00 0.00 0.00 50 1011.1
20260509032503 74 319 22.6 30.4 0.00 0.00 0.00 50 1011.1
20260509031504 74 325 14.8 25.2 0.00 0.00 0.00 50 1011.1
20260509031004 74 332 16.5 26.1 0.00 0.00 0.00 50 1011.1
20260509030503 74 334 18.2 26.1 0.00 0.00 0.00 50 1011.1
20260509030004 74 324 13.0 26.1 0.00 0.00 0.00 50 1011.1
20260509025503 74 311 16.5 24.3 0.00 0.00 0.00 50 1011.1
20260509024503 74 318 17.4 26.9 0.00 0.00 0.00 50 1011.1
20260509022504 72 325 12.2 23.5 0.00 0.00 0.00 50 1011.1
20260509022004 72 332 13.0 23.5 0.00 0.00 0.00 50 1011.1
20260509021504 72 319 14.8 30.4 0.00 0.00 0.00 50 1011.1
20260509021004 71 309 16.5 30.4 0.00 0.00 0.00 50 1011.1
20260509020504 72 316 14.8 26.1 0.00 0.00 0.00 50 1011.1
20260509020004 72 318 20.9 26.1 0.00 0.00 0.00 50 1011.1
20260509015503 72 316 20.0 30.4 0.00 0.00 0.00 50 1011.1
20260509014504 72 312 17.4 26.1 0.00 0.00 0.00 50 1011.1
20260509014004 71 309 20.9 36.5 0.00 0.00 0.00 50 1011.1
20260509013503 71 310 17.4 36.5 0.00 0.00 0.00 50 1011.1
20260509013004 71 308 15.6 32.2 0.00 0.00 0.00 50 1011.1
20260509012504 71 312 18.2 28.7 0.00 0.00 0.00 50 1011.1
20260509012005 71 319 13.0 32.2 0.00 0.00 0.00 50 1011.1
20260509011504 71 325 19.1 32.2 0.00 0.00 0.00 50 1011.1
20260509011004 71 325 18.2 28.7 0.00 0.00 0.00 50 1011.1
20260509010504 70 314 14.8 28.7 0.00 0.00 0.00 50 1011.1
20260509010005 70 312 19.1 31.3 0.00 0.00 0.00 50 1011.1
20260509005504 70 314 18.2 31.3 0.00 0.00 0.00 50 1011.1
20260509005005 70 317 22.6 24.3 0.00 0.00 0.00 50 1011.1
20260509004503 70 316 13.0 28.7 0.00 0.00 0.00 50 1012.1
20260509004003 69 312 18.2 34.8 0.00 0.00 0.00 50 1012.1
20260509003503 69 308 28.7 34.8 0.00 0.00 0.00 50 1012.1
20260509003004 69 305 20.0 27.8 0.00 0.00 0.00 50 1011.1
20260509002504 69 311 20.0 24.3 0.00 0.00 0.00 50 1011.1
20260509002004 68 313 18.2 24.3 0.00 0.00 0.00 50 1011.1
20260509001504 67 315 13.9 24.3 0.00 0.00 0.00 50 1012.1
20260509001004 67 317 14.8 24.3 0.00 0.00 0.00 50 1012.1
20260509000504 66 313 15.6 25.2 0.00 0.00 0.00 50 1012.1
20260509000004 66 314 19.1 25.2 0.00 0.00 0.00 50 1012.1
20260508235503 65 311 13.0 27.8 0.00 0.00 0.00 50 1012.1
20260508235005 65 311 16.5 27.8 0.00 0.00 0.00 50 1012.1
20260508234503 64 309 18.2 26.1 0.00 0.00 0.00 50 1013.1
20260508234004 64 310 20.0 26.1 0.00 0.00 0.00 50 1013.1
20260508233504 64 314 16.5 26.9 0.00 0.00 0.00 50 1013.1
20260508232504 63 308 16.5 26.1 0.00 0.00 0.00 50 1012.1
20260508232003 63 310 14.8 27.8 0.00 0.00 0.00 50 1012.1
20260508231504 63 315 17.4 27.8 0.00 0.00 0.00 50 1011.1
20260508231004 63 321 15.6 26.1 0.00 0.00 0.00 50 1011.1
20260508230504 63 321 22.6 28.7 0.00 0.00 0.00 50 1011.1
20260508225504 62 318 15.6 31.3 0.00 0.00 0.00 50 1011.1
20260508225004 62 312 14.8 31.3 0.00 0.00 0.00 50 1011.1
20260508224503 62 310 13.9 27.8 0.00 0.00 0.00 50 1011.1
20260508224004 62 313 18.2 32.2 0.00 0.00 0.00 50 1011.1
20260508223503 62 317 20.9 32.2 0.00 0.00 0.00 50 1011.1
20260508223004 62 320 15.6 22.6 0.00 0.00 0.00 50 1011.1
20260508222504 62 319 16.5 21.7 0.00 0.00 0.00 50 1011.1
20260508222005 62 319 13.0 20.9 0.00 0.00 0.00 50 1011.1
20260508221503 62 327 16.5 23.5 0.00 0.00 0.00 50 1010.1
20260508221005 63 319 13.9 23.5 0.00 0.00 0.00 50 1010.1
20260508220504 63 312 18.2 23.5 0.00 0.00 0.00 50 1010.1
20260508215004 62 324 13.0 25.2 0.00 0.00 0.00 50 1010.1
20260508214504 62 324 12.2 25.2 0.00 0.00 0.00 50 1011.1
20260508214004 61 315 13.0 21.7 0.00 0.00 0.00 50 1011.1
20260508213504 61 306 14.8 23.5 0.00 0.00 0.00 50 1011.1
20260508213004 60 311 14.8 23.5 0.00 0.00 0.00 50 1013.1
20260508212505 60 321 12.2 22.6 0.00 0.00 0.00 50 1013.1
20260508212004 60 321 12.2 16.5 0.00 0.00 0.00 50 1013.1
20260508211504 60 311 10.4 16.5 0.00 0.00 0.00 50 1012.1
20260508210504 60 309 13.9 20.9 0.00 0.00 0.00 50 1012.1
20260508210004 60 315 9.6 16.5 0.00 0.00 0.00 50 1012.1
20260508205504 60 311 5.2 16.5 0.00 0.00 0.00 50 1012.1
20260508205004 60 312 7.8 16.5 0.00 0.00 0.00 50 1012.1
20260508204505 59 311 7.0 12.2 0.00 0.00 0.00 50 1012.1
20260508204004 59 310 7.8 12.2 0.00 0.00 0.00 50 1012.1
20260508203504 58 309 9.6 14.8 0.00 0.00 0.00 50 1012.1
20260508202004 57 314 7.8 14.8 0.00 0.00 0.00 50 1012.1
20260508201504 57 313 9.6 15.6 0.00 0.00 0.00 50 1013.1
20260508201004 57 315 8.7 15.6 0.00 0.00 0.00 50 1013.1
20260508200504 57 322 7.8 15.6 0.00 0.00 0.00 50 1013.1
20260508200004 57 317 9.6 15.6 0.00 0.00 0.00 50 1012.1
20260508195504 58 305 9.6 15.6 0.00 0.00 0.00 50 1012.1
20260508195004 58 312 9.6 13.0 0.00 0.00 0.00 50 1012.1
20260508194504 58 318 9.6 14.8 0.00 0.00 0.00 50 1012.1
20260508194004 58 313 9.6 19.1 0.00 0.00 0.00 50 1012.1
20260508193504 58 311 15.6 22.6 0.00 0.00 0.00 50 1012.1
20260508192504 58 318 9.6 19.1 0.00 0.00 0.00 50 1011.1
20260508192003 58 311 8.7 19.1 0.00 0.00 0.00 50 1011.1
20260508191003 58 316 13.9 22.6 0.00 0.00 0.00 50 1011.1
20260508190504 58 322 14.8 18.2 0.00 0.00 0.00 50 1011.1
20260508190003 58 323 13.9 16.5 0.00 0.00 0.00 50 1011.1
20260508185504 58 323 11.3 20.9 0.00 0.00 0.00 50 1011.1
20260508184504 58 315 8.7 16.5 0.00 0.00 0.00 50 1011.1
20260508184004 59 315 14.8 18.2 0.00 0.00 0.00 50 1011.1
20260508183504 59 314 9.6 19.1 0.00 0.00 0.00 50 1011.1
20260508183004 59 312 10.4 19.1 0.00 0.00 0.00 50 1011.1
20260508182004 59 316 11.3 21.7 0.00 0.00 0.00 50 1011.1
20260508181504 59 311 11.3 20.9 0.00 0.00 0.00 50 1011.1
20260508180504 59 302 12.2 20.9 0.00 0.00 0.00 50 1011.1
20260508180004 59 308 8.7 21.7 0.00 0.00 0.00 50 1010.1
20260508175503 59 304 17.4 21.7 0.00 0.00 0.00 50 1010.1
20260508175004 58 306 14.8 21.7 0.00 0.00 0.00 50 1010.1
20260508174504 58 309 9.6 20.0 0.00 0.00 0.00 50 1009.1
20260508174004 58 304 15.6 14.8 0.00 0.00 0.00 50 1009.1
20260508173503 58 313 12.2 19.1 0.00 0.00 0.00 50 1009.1
20260508173003 58 314 12.2 21.7 0.00 0.00 0.00 50 1010.1
20260508172503 58 320 9.6 21.7 0.00 0.00 0.00 50 1010.1
20260508172004 58 322 13.0 14.8 0.00 0.00 0.00 50 1010.1
20260508171505 58 315 11.3 14.8 0.00 0.00 0.00 50 1010.1
20260508171004 58 321 3.5 12.2 0.00 0.00 0.00 50 1010.1
20260508170504 58 310 9.6 12.2 0.00 0.00 0.00 50 1010.1
20260508170004 58 297 6.1 11.3 0.00 0.00 0.00 50 1010.1
20260508165504 59 303 3.5 13.9 0.00 0.00 0.00 50 1010.1
20260508165004 59 305 9.6 13.9 0.00 0.00 0.00 50 1010.1
20260508164504 59 303 4.3 10.4 0.00 0.00 0.00 50 1010.1
20260508164004 59 301 7.0 10.4 0.00 0.00 0.00 50 1010.1
20260508163503 59 296 3.5 13.0 0.00 0.00 0.00 50 1010.1
20260508163003 59 303 5.2 15.6 0.00 0.00 0.00 50 1010.1
20260508162503 59 312 7.8 15.6 0.00 0.00 0.00 50 1010.1
20260508162003 60 317 8.7 13.0 0.00 0.00 0.00 50 1010.1
20260508161504 60 317 6.1 14.8 0.00 0.00 0.00 50 1010.1
20260508161003 60 317 10.4 14.8 0.00 0.00 0.00 50 1010.1
20260508160505 60 309 9.6 15.6 0.00 0.00 0.00 50 1010.1
20260508160004 60 305 13.0 15.6 0.00 0.00 0.00 50 1010.1
20260508155504 60 310 7.0 17.4 0.00 0.00 0.00 50 1010.1
20260508155004 60 309 11.3 17.4 0.00 0.00 0.00 50 1010.1
20260508154504 60 308 13.0 14.8 0.00 0.00 0.00 50 1010.1
20260508154004 60 320 12.2 26.1 0.00 0.00 0.00 50 1010.1
20260508153504 60 320 14.8 26.1 0.00 0.00 0.00 50 1010.1
20260508153004 60 321 16.5 26.1 0.00 0.00 0.00 50 1009.1
20260508152004 61 316 16.5 23.5 0.00 0.00 0.00 50 1009.1
20260508151504 61 307 14.8 20.0 0.00 0.00 0.00 50 1009.1
20260508151003 61 310 13.9 20.0 0.00 0.00 0.00 50 1009.1
20260508150503 61 315 13.9 22.6 0.00 0.00 0.00 50 1009.1
20260508145504 61 319 8.7 20.0 0.00 0.00 0.00 50 1009.1
20260508145004 61 312 8.7 21.7 0.00 0.00 0.00 50 1009.1
20260508144005 61 328 9.6 17.4 0.00 0.00 0.00 50 1009.1
20260508143004 62 330 9.6 15.6 0.00 0.00 0.00 50 1010.1
20260508142504 62 332 8.7 28.7 0.00 0.00 0.00 50 1010.1
20260508142004 62 334 14.8 28.7 0.00 0.00 0.00 50 1010.1
20260508141003 62 336 16.5 26.9 0.00 0.00 0.00 50 1010.1
20260508140005 62 333 12.2 23.5 0.00 0.00 0.00 50 1009.1
20260508135503 62 336 9.6 23.5 0.00 0.00 0.00 50 1009.1